Vertical_Velocity
-1 -5 -1 -1 -1 -1 -2 -1 0 -0 -1 0 -1 0 1 -2 0 1 -1 -0 1 2 0 2 4 -0 -1 -0 -3 -2 -0 -1 -0 1 2 2 1 0 -2 1 -0 -1 -1
-1 -4 -0 -0 -1 -1 -4 -3 -1 0 -1 -1 1 1 2 -2 2 3 1 -1 2 2 6 -1 8 1 -2 -0 -2 -2 -1 3 2 1 -1 -1 1 0 3 2 -0 -1 0
-1 -2 -1 -2 1 -0 -2 -0 -0 -0 -0 -0 2 -1 -1 -1 -1 -1 -2 -1 -3 -0 1 9 8 -4 -2 -0 1 -3 -3 -3 -1 2 2 2 2 1 -0 2 0 3 1
-1 -3 -3 -2 0 -1 -0 -4 -1 2 0 0 -1 -1 -1 -2 0 0 0 0 0 -2 -2 1 8 -1 2 -0 1 1 -0 -1 -1 0 3 2 1 2 2 0 0 1 -1
-0 1 -2 1 -1 -1 -2 -1 -1 3 0 -1 -2 -3 -4 0 -1 0 3 3 -0 2 1 -3 1 5 -1 1 1 -1 -1 2 3 4 -2 0 -2 3 1 2 2 2 2
2 2 -2 0 -0 0 -3 -4 -1 0 -1 -2 -4 -2 1 -2 1 -0 1 -1 -2 -1 6 -0 5 8 2 2 2 1 1 4 6 6 -1 3 3 14 4 10 3 8 5
1 2 0 -0 1 0 0 -3 -1 -0 4 -1 -2 -3 -1 3 1 -1 2 6 4 4 1 -0 4 -2 2 2 1 0 2 0 3 -1 1 2 1 3 5 5 9 9 2
1 2 -0 -0 1 0 -1 0 -0 3 4 -1 -2 -3 1 0 3 0 -5 1 0 4 1 6 5 1 5 12 10 6 1 4 -0 1 -1 1 7 3 2 2 1 0 3
0 -1 -1 1 2 0 -1 -1 -2 1 3 -1 -1 -2 5 5 -2 -4 4 -3 -4 7 -6 8 36 4 4 -6 -2 2 5 9 -2 2 3 3 5 4 1 2 3 6 5
2 0 -0 1 -1 1 -1 -3 -3 2 2 -8 2 -1 0 2 -2 1 -0 0 -2 -1 -1 4 -37 3 3 2 4 2 9 2 2 0 2 7 5 6 5 3 0 -1 -0
1 1 1 1 -1 -3 3 -5 -3 1 3 0 0 -1 3 -2 -5 1 -4 6 -3 -3 0 2 -9 2 -2 -3 -4 0 -7 5 7 5 2 8 6 4 3 0 -2 -1 0
2 1 1 1 0 1 -1 -2 -1 1 -1 -4 -0 3 -3 0 -3 -2 0 5 -6 -5 -3 16 -2 5 -0 -2 3 1 9 4 5 3 0 2 0 -1 -1 -2 0 1 1
0 1 2 3 1 -5 0 -2 -2 3 1 -2 1 1 -2 -2 1 -5 -4 14 4 14 6 -2 -5 -1 3 2 -2 11 8 1 4 3 0 1 0 1 -2 -4 -3 -0 1
-1 0 -1 1 1 -3 0 -3 -4 3 1 -3 0 -2 0 -3 2 -4 -2 2 16 12 -12 0 1 6 0 0 1 2 4 3 -1 2 6 5 -2 1 -3 -3 -1 -1 -2
-1 -0 3 6 1 -1 -1 -1 -1 1 0 0 0 -2 3 2 3 -4 -1 -8 3 23 -1 -1 9 12 12 12 9 20 1 3 -0 -3 -5 -0 0 1 1 -0 1 -1 -1
1 -0 2 4 3 2 -0 1 0 1 -3 -2 0 -2 -0 -1 2 4 2 2 14 -3 -4 -7 2 0 -3 -5 -3 1 7 8 2 -1 -2 -4 -1 -1 -2 -1 -2 -0 -1
2 4 1 2 7 1 3 -1 -2 -4 0 -3 1 -1 2 1 -1 2 1 4 2 -2 -2 8 4 3 -0 5 -1 3 3 0 -1 1 -2 -2 -0 -1 -1 -3 0 -3 -1
7 2 -2 4 6 2 1 -1 -1 -2 1 -1 -1 -1 -1 -3 2 -3 1 -0 1 -1 0 1 2 0 -0 0 -0 5 -3 2 3 2 -1 1 2 -0 -1 -1 -2 -1 -2
6 5 -1 2 5 4 1 0 -1 1 -2 2 -3 0 -3 1 -1 3 -2 -0 0 3 2 2 4 0 -2 -1 -9 -1 0 -1 1 3 0 1 -0 -2 1 -0 -1 -1 -1
5 29 4 2 8 6 -1 5 3 2 1 -0 -1 1 -2 1 1 4 3 2 2 6 7 2 -4 6 3 -1 -1 1 1 -4 1 1 2 1 1 -0 0 2 2 -2 -0
9 8 14 6 -0 14 -2 -3 1 1 -0 0 -0 -3 0 -2 0 3 2 3 2 3 2 5 -5 -3 -2 3 -4 5 4 -2 2 2 1 1 1 -0 -1 1 -2 0 -2
-2 4 6 17 5 18 -2 1 -0 4 3 3 -1 2 1 2 -1 -3 -1 0 1 -1 -2 1 4 -9 2 5 -6 1 -1 5 1 -0 -0 1 1 1 0 2 -1 -2 -2
-4 0 7 6 0 8 5 -1 5 5 6 -1 2 3 1 -0 2 0 -1 1 1 0 -1 1 -2 -1 -7 -2 1 -6 -5 -0 -2 2 2 0 1 -0 -1 -1 -2 -1 0
-3 -2 1 6 8 15 4 3 -2 -10 -7 0 -1 -0 -1 -0 -0 1 1 -2 -4 -3 -4 1 -1 -3 2 -9 -2 -0 -3 -3 -4 -1 1 2 -1 1 -1 -1 2 -2 2
1 -3 -2 0 6 4 6 5 -0 -2 3 5 2 2 2 -1 -0 1 2 2 1 -1 1 1 -2 -8 2 3 -2 -8 -1 1 -3 -4 -2 -2 2 0 0 -0 -0 -0 -4
5 2 0 -2 1 6 29 -0 9 -0 -2 -2 -1 -3 -0 3 1 -1 2 2 3 2 0 -1 -3 1 -3 3 3 1 3 -6 -5 -5 -1 3 1 -1 -1 1 -2 -1 -0
Height
1451 1452 1454 1457 1459 1462 1465 1467 1469 1471 1474 1476 1477 1479 1481 1483 1484 1485 1487 1489 1491 1494 1495 1497 1499 1501 1502 1504 1505 1506 1507 1508 1510 1511 1513 1515 1516 1518 1520 1523 1525 1527 1529
1450 1451 1453 1456 1458 1461 1464 1466 1468 1471 1473 1475 1477 1478 1480 1482 1483 1485 1486 1488 1491 1493 1496 1496 1498 1500 1502 1504 1505 1507 1509 1510 1511 1513 1515 1517 1519 1521 1524 1525 1527 1529 1532
1449 1450 1452 1455 1458 1460 1463 1467 1468 1470 1472 1474 1476 1477 1479 1480 1482 1484 1485 1487 1489 1492 1494 1498 1498 1498 1503 1504 1506 1508 1510 1511 1513 1515 1517 1519 1521 1523 1525 1528 1529 1532 1534
1448 1449 1451 1454 1457 1460 1462 1466 1468 1469 1471 1473 1474 1476 1478 1480 1481 1483 1484 1486 1488 1491 1493 1496 1499 1501 1503 1505 1507 1508 1511 1513 1516 1518 1520 1522 1523 1525 1527 1530 1532 1534 1536
1447 1448 1450 1453 1456 1459 1462 1465 1467 1469 1470 1472 1473 1475 1477 1478 1480 1482 1484 1486 1488 1490 1492 1495 1498 1501 1504 1506 1507 1509 1512 1515 1518 1520 1522 1522 1524 1526 1529 1532 1533 1535 1538
1446 1448 1450 1452 1455 1458 1460 1464 1466 1467 1469 1470 1472 1474 1476 1477 1479 1481 1483 1485 1487 1489 1492 1494 1496 1499 1503 1507 1507 1510 1513 1517 1518 1521 1522 1524 1526 1528 1531 1533 1535 1538 1540
1446 1448 1449 1452 1454 1456 1458 1461 1464 1467 1467 1468 1471 1473 1474 1475 1477 1479 1482 1484 1485 1488 1490 1492 1492 1492 1503 1507 1508 1511 1514 1517 1520 1521 1523 1525 1528 1532 1533 1535 1537 1538 1540
1446 1447 1448 1450 1453 1454 1456 1459 1461 1463 1465 1466 1469 1471 1472 1474 1475 1477 1480 1482 1484 1485 1489 1489 1486 1491 1501 1507 1509 1513 1516 1518 1520 1523 1525 1528 1531 1534 1536 1537 1539 1542 1544
1446 1446 1447 1450 1450 1453 1455 1457 1459 1461 1463 1464 1466 1469 1470 1471 1472 1474 1477 1479 1482 1485 1488 1489 1480 1491 1501 1502 1509 1513 1517 1519 1521 1524 1526 1529 1532 1534 1537 1540 1542 1544 1545
1443 1444 1446 1448 1449 1451 1452 1454 1456 1458 1460 1462 1465 1466 1468 1469 1470 1472 1474 1476 1478 1482 1486 1487 1481 1497 1500 1506 1511 1514 1517 1519 1522 1525 1527 1531 1534 1535 1538 1540 1543 1544 1547
1439 1440 1444 1447 1449 1452 1454 1454 1455 1456 1458 1460 1462 1464 1467 1466 1467 1469 1471 1472 1473 1475 1476 1487 1484 1497 1501 1503 1508 1513 1514 1519 1524 1525 1529 1532 1535 1537 1539 1542 1545 1548 1550
1435 1436 1439 1442 1446 1450 1451 1451 1453 1455 1456 1458 1461 1462 1464 1465 1465 1467 1468 1469 1473 1471 1473 1482 1484 1493 1499 1506 1510 1515 1518 1519 1522 1526 1530 1533 1535 1538 1541 1544 1547 1550 1552
1430 1432 1434 1439 1443 1445 1447 1449 1452 1453 1455 1457 1459 1459 1461 1465 1463 1465 1464 1467 1469 1476 1474 1480 1491 1498 1503 1507 1511 1517 1519 1520 1524 1527 1532 1535 1538 1541 1544 1547 1550 1552 1553
1428 1430 1433 1436 1439 1443 1445 1447 1449 1452 1453 1454 1458 1458 1461 1465 1465 1467 1465 1468 1468 1467 1478 1487 1493 1499 1504 1509 1513 1517 1520 1522 1525 1528 1533 1535 1538 1541 1544 1547 1550 1552 1553
1425 1427 1430 1433 1438 1439 1442 1445 1447 1450 1451 1453 1456 1458 1461 1464 1466 1468 1468 1471 1476 1471 1480 1489 1495 1500 1504 1509 1513 1516 1522 1524 1528 1531 1535 1538 1540 1541 1544 1547 1549 1551 1552
1423 1424 1428 1432 1436 1437 1438 1441 1444 1448 1449 1452 1455 1457 1460 1463 1467 1469 1472 1473 1476 1478 1485 1491 1495 1499 1504 1510 1517 1522 1524 1527 1530 1533 1536 1539 1543 1544 1546 1548 1550 1552 1554
1422 1422 1424 1428 1434 1435 1435 1438 1442 1445 1448 1451 1454 1456 1460 1463 1466 1469 1472 1474 1478 1483 1488 1492 1497 1502 1505 1511 1517 1524 1527 1530 1533 1535 1539 1541 1543 1546 1548 1550 1552 1554 1555
1420 1420 1420 1425 1430 1432 1433 1436 1440 1442 1446 1449 1453 1454 1458 1460 1464 1468 1471 1474 1477 1480 1485 1491 1496 1501 1506 1511 1516 1520 1527 1532 1535 1536 1540 1542 1544 1546 1547 1551 1554 1556 1557
1420 1418 1417 1422 1426 1429 1430 1434 1437 1441 1444 1447 1450 1452 1455 1458 1462 1466 1469 1473 1477 1481 1486 1491 1496 1501 1504 1510 1515 1519 1526 1531 1535 1537 1540 1542 1544 1546 1549 1551 1553 1556 1558
1409 1414 1416 1419 1424 1426 1428 1433 1435 1439 1441 1445 1448 1450 1452 1456 1460 1464 1468 1472 1476 1479 1483 1489 1495 1501 1506 1510 1515 1520 1524 1530 1535 1538 1539 1543 1545 1548 1550 1553 1554 1555 1557
1409 1410 1415 1416 1421 1422 1423 1428 1432 1435 1438 1442 1446 1449 1451 1454 1458 1463 1468 1472 1477 1480 1483 1489 1493 1500 1506 1511 1514 1520 1526 1531 1536 1538 1540 1543 1545 1547 1550 1552 1554 1556 1557
1407 1407 1409 1411 1417 1419 1419 1425 1430 1435 1437 1441 1444 1448 1450 1453 1456 1461 1467 1471 1476 1480 1484 1489 1493 1498 1507 1512 1514 1518 1527 1534 1537 1538 1540 1542 1544 1546 1548 1551 1553 1555 1556
1406 1403 1403 1406 1407 1415 1415 1421 1428 1432 1436 1438 1442 1445 1449 1452 1457 1460 1466 1471 1475 1481 1485 1488 1493 1499 1503 1508 1513 1516 1523 1529 1534 1538 1539 1541 1543 1545 1547 1550 1553 1555 1556
1405 1403 1400 1400 1402 1406 1412 1413 1420 1424 1427 1433 1437 1441 1447 1451 1455 1460 1464 1469 1474 1479 1484 1488 1492 1498 1502 1504 1509 1515 1518 1522 1527 1534 1538 1539 1542 1544 1546 1549 1551 1554 1556
1407 1402 1399 1397 1398 1401 1405 1408 1414 1419 1426 1430 1434 1438 1443 1447 1452 1458 1462 1466 1471 1476 1481 1486 1490 1496 1502 1505 1508 1512 1516 1520 1523 1525 1529 1535 1539 1542 1544 1546 1549 1552 1554
1409 1402 1398 1396 1395 1397 1400 1405 1409 1413 1418 1424 1428 1433 1437 1442 1447 1453 1458 1462 1467 1472 1477 1482 1487 1493 1498 1503 1507 1512 1515 1516 1519 1522 1525 1530 1535 1539 1541 1544 1547 1550 1552